Location: Poprad
(49.0500°N, 20.3000°E)
Time: 21:11:26
(UTC+01:00)

ISS - Visible Passes

Search period start: 09 December 2018 00:00
Search period end: 19 December 2018 00:00
Orbit: 401 x 408 km, 51.6° (Epoch: 10 December)

Date Brightness Start Highest point End Pass type
(mag) Time Alt. Az. Time Alt. Az. Time Alt. Az.
09 Dec -3.9 16:47:00 10° WNW 16:50:16 80° NNE 16:53:11 12° ESE visible
09 Dec -1.6 18:23:45 10° W 18:25:52 24° WSW 18:25:52 24° WSW visible
10 Dec -2.6 17:31:21 10° WNW 17:34:27 40° SSW 17:36:18 20° SSE visible
11 Dec -3.4 16:39:03 10° WNW 16:42:18 63° SSW 16:45:31 10° SE visible
11 Dec -0.9 18:16:35 10° WSW 18:18:16 13° SW 18:19:41 11° SSW visible
12 Dec -1.3 17:23:41 10° W 17:26:15 22° SW 17:28:50 10° SSE visible
13 Dec -2.0 16:31:10 10° W 16:34:10 34° SSW 16:37:10 10° SE visible
14 Dec -0.4 17:16:54 10° WSW 17:17:54 11° SW 17:18:54 10° SSW visible
15 Dec -0.7 16:23:32 10° W 16:25:53 18° SW 16:28:13 10° S visible
